Regional Weather Roundup
Issued by NWS

Home | Current Version | Previous Version | Text Only | Print | Product List | Glossary On
Versions: 1 2 3 4 5 6 7 8 9 10 11 12 13 14 15 16 17 18 19 20 21 22 23 24 25 26 27 28 29 30 31 32 33 34 35 36 37 38 39 40 41 42 43 44 45 46 47 48 49 50
000
ASUS43 KMPX 010710
RWRMN
WEATHER ROUNDUP FOR MINNESOTA
NATIONAL WEATHER SERVICE TWIN CITIES/CHANHASSEN MN
200 AM CDT SAT NOV 01 2014


NOTE: "FAIR" INDICATES FEW OR NO CLOUDS BELOW 12,000 FEET WITH NO
SIGNIFICANT WEATHER AND/OR OBSTRUCTIONS TO VISIBILITY. N/A MEANS
CURRENT SKY AND/OR WEATHER CONDITIONS ARE NOT AVAILABLE.

MNZ060>063-068>070-010800-
   Twin Cities Metro

CITY           SKY/WX    TMP DP  RH WIND       PRES   REMARKS
TWIN CITIES    CLEAR     27  17  66 SE5       30.47F WCI  22
ST PAUL        CLEAR     26  20  77 SE3       30.49F
CRYSTAL        CLEAR     22  15  75 CALM      30.46S
BLAINE         CLEAR     19  18  93 CALM      30.46F
LAKEVILLE      CLEAR     16  16 100 CALM      30.46F
EDEN PRAIRIE   CLEAR     27  20  75 CALM      30.46S
SOUTH ST PAUL  CLEAR     24  19  80 CALM      30.48S
LAKE ELMO      FAIR      19  18  93 CALM      30.48S
$$
MNZ001>005-007-008-013>017-022>024-027-028-010800-
   Northwest Minnesota

CITY           SKY/WX    TMP DP  RH WIND       PRES   REMARKS
BEMIDJI        PTCLDY    27  16  62 S6        30.36S WCI  21
HALLOCK        MOCLDY    34  19  55 S18G28    30.25F WCI  23
ROSEAU         CLOUDY    32  21  64 S10       30.30F WCI  24
WARROAD        MOCLDY    30  21  69 S8        30.32F WCI  23
THIEF RVR FALL PTCLDY    30  19  64 S10       30.31S WCI  21
CROOKSTON      MOCLDY    32  21  64 S14       30.31F WCI  22
FOSSTON        PTCLDY    27  18  69 S13       30.33F WCI  16
DETROIT LAKES  MOCLDY    32  21  64 S15       30.34F WCI  22
MOORHEAD       MOCLDY    32  21  64 S15G21    30.34S WCI  22
PARK RAPIDS    PTCLDY    26  16  65 S8        30.37F WCI  18
MAHNOMEN       FAIR      31  20  64 S13       30.32F WCI  21
$$
MNZ006-009>011-018-025>026-010800-
   North Central Minnesota

CITY           SKY/WX    TMP DP  RH WIND       PRES   REMARKS
BAUDETTE       CLEAR     25  18  74 S5        30.34F WCI  19
FLAG ISLAND    MOCLDY    37  25  60 S17G24    30.30F
INTL FALLS     CLEAR     16  12  84 SE3       30.38S
WASKISH        CLEAR     19  18  93 CALM      30.36S
BIG FORK       CLEAR     19  18  93 CALM      30.39S
LONGVILLE      CLEAR     27  19  74 S5        30.39F WCI  21
GRAND RAPIDS   CLEAR     21  14  73 S6        30.39F WCI  14
CRANE LAKE     CLEAR     16  14  93 CALM      30.42F
ORR            CLEAR     23  14  68 CALM      30.37S
COOK           CLEAR     18  16  93 CALM      30.40S
WALKER         FAIR      28  14  54 S3        30.37F
$$
MNZ012-019>021-037-010800-
   Northeast Minnesota

CITY           SKY/WX    TMP DP  RH WIND       PRES   REMARKS
DULUTH         CLEAR     26  13  57 SW5       30.41F WCI  20
ELY            CLEAR     16  12  86 CALM      30.41S
HIBBING        CLEAR     14  10  84 CALM      30.41S
EVELETH        CLEAR     18  16  93 CALM      30.42S
DULUTH HARBOR  CLEAR     28  21  74 CALM      30.47S
TWO HARBORS    CLEAR     21  18  86 CALM      30.42S
SILVER BAY     CLEAR     18  16  93 CALM      30.42S
GRAND MARAIS     N/A     22  18  85 NW6       30.46S WCI  14
G MARAIS ARPRT CLEAR     10   7  85 SW1       30.40S
$$
MNZ029>031-032-039>041-046>048-054>057-064-010800-
   West Central Minnesota

CITY           SKY/WX    TMP DP  RH WIND       PRES   REMARKS
FERGUS FALLS   PTCLDY    30  16  55 SE17      30.38F WCI  18
WHEATON        PTCLDY    25  18  74 SE14      30.37F WCI  13
MORRIS         CLEAR     25  19  80 SE12      30.38F WCI  14
ALEXANDRIA     PTCLDY    28  18  66 S10       30.40F WCI  19
ELBOW LAKE     FAIR      27  19  71 SE16      30.36F WCI  15
WADENA         PTCLDY    23  18  80 S6        30.38F WCI  16
GLENWOOD       CLEAR     25  19  80 SE6       30.41S WCI  18
APPLETON       CLEAR     27  18  69 SE9       30.40S WCI  17
BENSON         CLEAR     25  18  74 S9        30.41F WCI  15
ORTONVILLE     PTCLDY    25  18  74 SE7       30.37F WCI  17
MADISON        CLEAR     27  19  74 SE8       30.40F WCI  18
WILLMAR        FAIR      23  16  74 SE6       30.44S WCI  16
$$
MNZ033>034-036-042>043-049>051-058-059-010800-
   Central Minnesota

CITY           SKY/WX    TMP DP  RH WIND       PRES   REMARKS
ST CLOUD       FAIR      23  15  71 SE5       30.44F WCI  17
SAUK CENTRE    FAIR      22  16  79 SE6       30.42S WCI  14
PAYNESVILLE    CLEAR     26  18  69 E8        30.43F WCI  18
AITKIN         CLEAR     19  16  86 CALM      30.41S
PINE RIVER     CLEAR     19  18  93 CALM      30.42F
BRAINERD       CLEAR     23  15  71 S7        30.42S WCI  15
STAPLES        CLEAR     25  16  68 SE3       30.39F
LONG PRAIRIE   FAIR      23  18  80 SE6       30.41F WCI  16
LITTLE FALLS   CLEAR     23  16  74 CALM      30.43S
LITCHFIELD     CLEAR     28  19  69 CALM      30.44F
BUFFALO        CLEAR     21  15  76 CALM      30.46F
MAPLE LAKE     CLEAR     27  20  75 CALM      30.45F
$$
MNZ037-044-045-052-053-010800-
   East Central Minnesota

CITY           SKY/WX    TMP DP  RH WIND       PRES   REMARKS
PRINCETON      CLEAR     19  16  86 CALM      30.44F
MORA           CLEAR     18  16  93 CALM      30.46F
CAMBRIDGE      CLEAR     21  14  73 CALM      30.43F
RUSH CITY      FAIR      19  16  87 CALM      30.46S
MOOSE LAKE     CLEAR     18  16  93 CALM      30.43S
HINCKLEY       FAIR      19  18  93 CALM      30.45F
CLOQUET        CLEAR     25  14  63 SW3       30.42F
MCGREGOR       CLEAR     23  19  86 S3        30.43S
$$
MNZ071>073-080-081-089-090-097-098-010800-
   Southwest Minnesota

CITY           SKY/WX    TMP DP  RH WIND       PRES   REMARKS
MONTEVIDEO     CLEAR     27  18  69 S8        30.43S WCI  18
GRANITE FALLS  PTCLDY    25  16  67 SE10      30.44F WCI  15
CANBY          CLEAR     26  19  75 S9        30.40F WCI  17
MARSHALL       PTCLDY    25  14  63 S9        30.40F WCI  15
REDWOOD FALLS  CLEAR     23  14  68 S8        30.44S WCI  14
OLIVIA         CLEAR     25  16  68 SE6       30.44R WCI  18
PIPESTONE      PTCLDY    27  16  63 S10       30.38F WCI  17
WINDOM         PTCLDY    21  16  79 S6        30.43F WCI  14
WORTHINGTON    PTCLDY    25  16  68 S6        30.42F WCI  18
JACKSON        PTCLDY    28  16  59 SE9       30.44S WCI  20
TRACY          PTCLDY    26  17  67 S8        30.41F WCI  18
SLAYTON        PTCLDY    21  15  78 S8        30.42S WCI  11
$$
MNZ065>067-074>077-082>085-091>093-010800-
   South Central Minnesota

CITY           SKY/WX    TMP DP  RH WIND       PRES   REMARKS
MANKATO        PTCLDY    25  12  58 SE6       30.46F WCI  18
NEW ULM        CLEAR     25  18  74 SE6       30.45F WCI  18
ST JAMES       PTCLDY    23  16  74 SE7       30.47S WCI  15
FAIRMONT       PTCLDY    23  10  58 S8        30.45F WCI  14
GLENCOE        PTCLDY    26  17  70 SE6       30.45F WCI  19
FARIBAULT      CLEAR     18  14  86 CALM      30.46F
OWATONNA       CLEAR     21  16  79 CALM      30.46S
WASECA         PTCLDY    19  14  79 CALM      30.48S
ALBERT LEA     CLEAR     21  18  86 S1        30.46F
$$
MNZ078>079-086>088-094>096-010800-
   Southeast Minnesota

CITY           SKY/WX    TMP DP  RH WIND       PRES   REMARKS
ROCHESTER      CLEAR     24  17  74 S3        30.47R
RED WING       CLEAR     19  18  93 CALM      30.48R
STANTON        CLEAR     19  15  86 CALM      30.46F
DODGE CENTER   PTCLDY    21  18  86 SE3       30.45F
WINONA         CLEAR     28  23  80 CALM      30.50S
AUSTIN         CLEAR     21  18  86 CALM      30.46S
PRESTON        CLEAR     27  17  68 CALM      30.47S
$$
ABBREVIATIONS USED IN REMARKS
   TC - TEMPERATURES IN CELSIUS
  WCI - WIND CHILL INDEX
   HX - HEAT INDEX
  VSB - VISIBILITY
$$



USA.gov is the U.S. government's official web portal to all federal, state and local government web resources and services.